Wind_Speed
15 15 16 17 16 16 17 18 19 19 19 20 24 23 23 23 23 24 24 24 24 24 23 23 22 22 21 20 20 20 19 20 21 21 20 20 19 18 18 18 17 17 17 16
16 16 16 17 17 17 17 18 19 20 20 21 22 23 23 23 23 23 23 23 23 22 22 21 21 21 20 20 20 20 19 19 19 20 20 19 18 18 17 16 16 17 16 15
18 17 18 19 17 17 18 19 20 20 20 21 21 21 22 22 22 22 22 22 22 22 21 20 19 20 20 20 20 19 19 18 18 18 18 17 17 15 16 16 16 16 15 15
19 19 19 19 18 19 19 20 21 22 22 22 22 22 21 22 22 21 21 21 21 20 20 20 20 20 19 19 19 18 18 17 17 17 17 16 15 15 15 16 16 16 15 14
19 19 20 20 19 20 21 21 21 22 22 22 22 22 22 22 22 21 20 20 20 20 20 20 19 19 19 18 18 17 16 16 16 16 16 15 14 13 15 16 16 15 15 16
21 21 21 21 21 22 22 23 23 23 22 22 22 22 22 22 22 21 20 20 20 20 20 20 19 18 18 17 16 16 15 15 16 16 16 16 15 15 15 15 15 15 15 16
23 23 24 23 23 23 23 24 24 24 23 23 23 22 22 22 21 21 20 20 19 19 19 19 18 18 17 16 16 15 15 15 16 15 15 15 15 15 15 15 14 14 14 15
25 25 26 25 25 24 24 25 25 25 25 25 24 23 22 22 21 21 20 19 19 19 18 18 18 17 16 15 15 15 15 16 16 15 14 14 14 14 14 14 15 15 15 15
27 27 27 27 27 27 27 26 27 26 26 26 25 24 23 22 20 20 19 18 18 18 18 18 17 16 15 15 14 14 14 14 14 14 13 13 13 13 13 14 15 15 15 16
28 28 29 29 29 28 28 28 28 28 27 26 25 24 23 22 21 20 19 18 18 18 18 17 17 16 15 14 14 13 13 12 12 12 13 13 13 12 13 14 15 15 16 17
29 29 29 31 30 30 30 30 29 27 27 26 25 24 23 22 22 21 20 19 18 17 17 16 15 14 14 14 13 13 12 12 11 12 12 12 12 12 13 14 14 15 16 16
30 30 31 31 31 31 31 30 29 28 27 27 26 25 24 23 22 21 20 18 17 16 16 15 14 14 14 14 13 12 11 11 11 12 11 10 10 11 12 13 14 14 15 16
31 31 32 33 33 32 31 30 29 28 28 27 26 25 24 23 22 21 20 18 17 16 15 14 14 14 14 13 12 11 11 10 11 10 9 9 9 10 11 12 13 14 15 16
32 32 33 32 33 32 31 30 29 28 28 27 26 25 24 23 22 21 20 19 17 16 15 14 14 14 14 13 13 12 11 10 9 9 8 8 9 9 10 10 12 13 14 14
31 32 32 31 31 31 30 29 29 28 28 27 26 25 24 24 22 21 19 18 17 16 15 15 15 14 14 13 13 12 11 10 9 8 7 8 8 9 9 9 11 12 13 14
32 32 32 31 30 30 30 29 28 27 27 26 26 25 24 23 22 21 20 18 17 17 16 16 16 15 14 13 13 12 11 9 8 7 8 8 8 8 8 9 10 11 13 14
31 31 30 30 29 29 28 28 27 26 25 25 24 24 23 22 22 21 20 20 19 18 18 17 17 16 15 14 13 12 11 10 9 8 8 7 8 8 8 9 10 11 12 13
31 31 30 30 28 28 28 27 26 25 24 23 23 22 22 22 22 22 21 21 20 19 19 18 17 15 15 14 13 11 11 11 10 9 8 8 8 8 8 9 9 10 12 13
30 30 30 29 28 28 27 26 25 24 24 23 22 21 21 21 21 22 21 20 20 19 18 17 16 15 14 14 13 12 11 11 10 9 8 8 9 8 8 8 9 10 11 12
30 29 29 29 28 28 27 26 25 24 23 23 23 22 22 21 21 21 21 20 19 19 18 17 16 15 14 14 13 13 12 11 10 9 8 8 8 8 8 8 8 10 10 12
30 29 29 28 28 27 26 26 25 25 25 24 24 23 22 22 22 22 21 20 19 18 18 17 16 15 14 14 13 12 12 11 10 9 9 9 9 8 8 9 9 10 10 12
29 29 28 27 27 27 26 26 26 25 25 24 24 23 23 23 22 21 20 19 19 18 18 17 16 15 15 14 13 12 11 11 10 10 10 9 9 8 8 9 9 10 11 12
29 28 28 27 27 26 26 26 25 24 24 24 23 23 23 22 22 21 20 19 19 19 18 17 16 15 15 14 13 13 12 12 11 10 9 8 9 9 9 9 9 10 10 11
29 28 27 27 27 26 26 26 26 25 24 23 22 22 22 21 21 21 20 19 18 19 19 18 17 16 15 15 14 13 13 13 12 11 10 9 9 10 10 9 9 10 10 11
29 28 27 27 27 26 26 25 24 24 23 22 22 21 21 20 20 20 19 19 18 18 18 18 17 17 17 16 15 15 14 13 12 11 10 9 9 10 10 10 10 10 11 11
29 27 27 26 26 25 25 24 23 23 23 22 22 21 21 20 20 19 19 19 19 19 18 18 18 18 17 17 16 15 15 14 13 13 12 11 10 10 10 11 11 11 11 12
27 26 26 26 26 25 25 24 23 23 23 22 21 20 20 20 20 19 19 18 19 19 19 19 18 18 18 17 17 16 16 15 15 14 14 12 11 11 11 11 11 12 12 12
Wind_Direction
288 286 287 290 294 293 296 300 301 305 305 306 311 318 319 322 320 319 319 320 323 323 323 323 325 327 328 327 327 328 328 326 327 328 329 329 330 331 333 333 333 332 330 328
284 285 286 288 290 291 295 298 299 304 307 311 312 316 319 322 323 323 322 322 324 325 325 326 327 328 329 329 328 328 328 328 328 329 329 331 331 332 335 336 335 335 334 334
284 285 286 288 295 296 297 299 300 306 310 311 313 317 321 323 324 325 325 327 328 328 328 328 329 329 330 331 332 331 330 329 330 332 332 333 336 339 340 341 341 342 343 344
284 286 285 290 293 294 295 295 299 303 308 309 311 315 318 320 324 328 329 330 331 333 334 334 333 334 333 333 333 333 334 334 333 333 335 336 339 340 341 343 347 347 346 345
281 284 287 291 293 294 295 298 301 302 306 307 309 312 316 319 323 327 330 332 332 332 333 335 334 335 335 334 335 335 338 340 340 341 344 342 340 342 345 347 347 346 347 348
278 280 280 285 288 291 292 295 300 303 305 305 305 308 314 319 323 325 328 330 331 332 332 333 335 336 335 335 337 340 344 345 344 344 347 349 350 348 348 349 348 348 349 349
278 279 279 283 285 288 290 294 297 300 302 301 301 304 310 314 316 320 323 325 329 331 331 333 334 335 336 337 340 341 343 345 346 347 348 352 354 353 353 354 354 353 350 348
278 278 279 283 284 286 288 291 294 295 296 297 298 300 303 306 309 313 316 319 323 327 329 331 333 335 335 337 338 340 341 343 347 349 351 352 355 356 358 359 359 359 357 354
276 278 279 279 282 284 286 288 291 292 293 295 295 297 298 301 304 308 311 313 316 319 324 327 329 330 331 332 334 337 340 342 347 352 353 356 358 359 1 2 2 3 2 360
273 274 276 279 281 282 284 286 290 292 292 292 292 293 295 297 299 303 305 307 309 313 318 321 324 324 326 329 332 336 339 343 347 351 353 355 356 -0 3 3 5 6 6 4
270 271 273 276 280 281 284 285 286 287 288 288 288 290 292 293 295 297 299 301 304 308 312 317 320 322 324 325 328 331 333 336 341 346 350 354 357 0 2 3 5 5 6 6
270 271 273 276 279 281 282 283 284 285 286 286 286 287 288 289 290 292 295 297 300 304 307 310 314 318 320 321 324 327 329 333 335 340 345 354 360 0 2 4 6 7 8 8
268 270 272 275 278 279 280 281 282 282 282 283 285 285 285 285 285 287 290 292 294 297 301 305 307 310 316 317 319 321 323 327 330 335 340 349 356 359 1 4 7 9 10 10
268 270 272 274 276 277 278 279 280 281 281 282 282 282 282 281 281 283 285 287 288 292 295 298 299 304 309 311 312 314 316 320 323 326 332 340 346 351 354 357 1 4 5 5
270 272 273 274 274 275 277 278 278 279 279 278 278 278 277 277 277 278 279 282 283 285 287 290 294 298 301 305 305 307 309 311 315 319 323 330 337 343 347 350 353 356 359 1
269 271 272 273 273 275 277 278 278 278 277 276 275 275 274 274 273 273 272 275 277 279 281 285 290 294 294 297 299 300 300 303 306 305 311 321 331 337 340 342 345 349 352 356
268 269 270 270 271 273 275 276 277 276 276 275 274 273 272 271 269 269 270 272 274 276 279 283 287 289 288 289 292 293 291 293 295 293 297 310 323 328 331 333 337 341 346 350
268 268 268 267 268 270 272 274 273 273 274 274 273 272 270 269 268 266 268 270 271 274 276 278 281 283 282 282 284 284 285 288 289 288 292 301 311 316 321 328 335 338 341 345
268 269 267 265 267 268 269 270 268 267 270 272 271 269 269 269 267 265 265 267 269 272 273 272 273 276 279 277 275 276 278 279 281 283 286 292 300 305 312 319 325 330 334 340
266 267 266 264 266 266 266 264 262 263 266 268 269 270 268 265 263 262 262 264 267 269 268 268 267 270 273 270 272 273 272 271 272 274 279 286 292 296 302 309 316 324 331 337
264 266 266 264 264 264 263 262 261 261 263 265 267 267 265 263 261 261 261 262 262 264 264 264 263 264 265 266 267 268 266 263 261 266 275 281 284 286 294 300 308 317 327 334
264 266 265 264 262 261 261 261 260 259 261 263 264 264 262 261 260 260 259 259 258 258 259 261 261 261 262 262 262 260 261 258 257 264 273 275 276 279 285 294 302 310 319 327
264 265 264 262 261 259 258 257 257 258 260 261 262 261 261 259 258 258 259 258 256 256 256 257 256 256 258 258 256 256 257 255 254 260 265 264 268 274 279 287 297 305 311 318
263 263 262 260 258 256 256 257 257 257 258 258 259 259 259 258 257 256 256 256 256 255 255 254 253 253 254 254 256 255 252 250 250 255 259 259 260 265 273 283 292 300 305 310
263 262 261 258 254 254 255 255 255 255 256 255 256 257 257 256 255 254 255 256 256 255 254 251 249 249 251 254 255 253 249 246 247 250 255 257 260 264 272 281 289 296 302 308
261 260 258 254 251 252 253 251 251 252 252 252 254 254 253 252 252 251 251 254 254 253 251 250 249 248 249 251 251 247 244 241 243 244 247 253 258 265 274 281 287 293 300 307
258 256 254 250 248 248 248 248 249 250 250 251 252 252 251 249 250 250 253 255 254 251 248 248 249 248 249 249 246 243 240 238 240 242 244 248 257 268 276 281 286 291 297 305
Height
5838 5838 5837 5836 5835 5833 5832 5830 5827 5824 5820 5817 5812 5809 5806 5803 5799 5796 5792 5788 5784 5780 5776 5772 5769 5765 5762 5759 5756 5752 5750 5747 5743 5740 5736 5733 5729 5726 5722 5719 5715 5712 5709 5706
5834 5834 5833 5832 5831 5829 5828 5825 5823 5820 5817 5814 5810 5807 5803 5800 5796 5792 5788 5784 5780 5777 5773 5769 5766 5763 5760 5756 5753 5750 5747 5744 5741 5738 5734 5731 5728 5724 5721 5717 5714 5710 5707 5704
5830 5829 5828 5827 5827 5825 5823 5821 5819 5816 5814 5810 5806 5804 5800 5796 5792 5789 5785 5781 5777 5774 5770 5766 5763 5760 5757 5754 5750 5747 5744 5742 5739 5736 5732 5729 5726 5723 5720 5716 5713 5709 5706 5703
5825 5825 5823 5825 5822 5821 5819 5817 5815 5812 5809 5806 5802 5800 5797 5793 5790 5786 5782 5778 5775 5771 5768 5764 5761 5758 5755 5751 5748 5745 5742 5740 5737 5734 5731 5728 5724 5722 5719 5715 5712 5708 5706 5703
5820 5819 5819 5819 5817 5816 5814 5812 5810 5808 5805 5802 5798 5796 5793 5790 5787 5783 5780 5776 5773 5769 5766 5762 5759 5756 5753 5750 5747 5744 5741 5738 5736 5733 5729 5726 5723 5721 5718 5715 5712 5709 5706 5702
5815 5814 5814 5814 5812 5810 5809 5807 5805 5802 5800 5798 5795 5793 5790 5786 5783 5780 5777 5774 5771 5767 5764 5760 5757 5754 5752 5749 5746 5743 5740 5738 5735 5732 5729 5726 5723 5720 5717 5714 5711 5708 5705 5702
5809 5808 5807 5808 5806 5805 5805 5803 5800 5797 5795 5793 5790 5788 5786 5783 5780 5777 5774 5771 5768 5765 5762 5759 5756 5753 5750 5747 5744 5742 5739 5737 5734 5731 5728 5725 5723 5720 5717 5714 5711 5708 5704 5701
5803 5802 5803 5801 5800 5799 5798 5796 5794 5792 5790 5788 5786 5783 5781 5779 5776 5774 5771 5769 5766 5763 5760 5757 5754 5751 5749 5746 5744 5741 5739 5736 5733 5731 5728 5726 5723 5720 5717 5714 5711 5708 5704 5700
5797 5798 5795 5794 5793 5792 5791 5790 5788 5786 5784 5782 5780 5778 5776 5774 5772 5770 5768 5765 5763 5760 5758 5755 5752 5750 5748 5745 5742 5740 5738 5735 5733 5731 5728 5726 5723 5720 5717 5714 5711 5708 5704 5700
5789 5789 5788 5787 5785 5784 5783 5782 5781 5779 5778 5776 5774 5772 5771 5769 5767 5765 5763 5761 5759 5757 5755 5752 5750 5747 5746 5743 5741 5739 5737 5735 5733 5730 5728 5725 5723 5720 5718 5715 5711 5708 5704 5700
5781 5781 5780 5779 5778 5777 5776 5775 5773 5772 5771 5769 5767 5766 5765 5763 5762 5760 5759 5757 5755 5753 5751 5749 5747 5745 5743 5741 5739 5738 5736 5734 5732 5730 5727 5725 5722 5720 5717 5715 5711 5708 5705 5701
5773 5773 5772 5771 5770 5769 5768 5767 5766 5765 5763 5762 5761 5759 5758 5757 5756 5755 5754 5753 5751 5749 5748 5746 5744 5743 5741 5739 5737 5736 5734 5732 5730 5728 5726 5724 5722 5720 5718 5715 5712 5709 5706 5702
5764 5763 5763 5762 5761 5760 5759 5759 5758 5757 5755 5754 5753 5752 5751 5750 5750 5749 5749 5748 5747 5745 5744 5743 5741 5740 5738 5736 5735 5734 5732 5730 5729 5727 5725 5723 5722 5720 5718 5716 5713 5710 5707 5703
5754 5754 5754 5754 5752 5751 5751 5750 5749 5748 5747 5747 5746 5745 5744 5744 5744 5744 5743 5743 5742 5741 5740 5739 5737 5736 5735 5733 5732 5731 5730 5728 5727 5725 5724 5722 5721 5719 5717 5715 5713 5710 5707 5704
5745 5745 5745 5744 5743 5742 5742 5741 5741 5740 5739 5739 5738 5738 5737 5737 5737 5738 5738 5737 5737 5736 5735 5734 5733 5732 5731 5730 5729 5728 5727 5726 5724 5723 5722 5721 5720 5718 5717 5715 5713 5710 5708 5704
5736 5735 5735 5735 5734 5734 5733 5733 5732 5732 5731 5731 5731 5731 5731 5731 5731 5732 5732 5732 5732 5731 5731 5730 5729 5728 5727 5726 5725 5724 5724 5723 5722 5721 5721 5719 5718 5717 5716 5714 5712 5710 5707 5704
5726 5726 5726 5726 5725 5725 5725 5724 5724 5723 5723 5723 5723 5724 5724 5725 5725 5725 5726 5726 5726 5726 5725 5725 5724 5723 5723 5722 5721 5721 5721 5720 5720 5719 5719 5718 5716 5715 5714 5712 5711 5709 5706 5704
5716 5716 5716 5716 5717 5717 5716 5716 5716 5715 5715 5715 5717 5717 5717 5718 5718 5719 5719 5720 5720 5720 5720 5719 5719 5719 5718 5717 5717 5717 5717 5717 5717 5716 5716 5715 5714 5713 5712 5711 5709 5707 5705 5703
5706 5706 5707 5707 5708 5707 5708 5708 5708 5709 5709 5709 5710 5710 5711 5711 5711 5712 5713 5713 5714 5714 5714 5714 5714 5714 5713 5713 5713 5713 5713 5713 5713 5713 5713 5712 5712 5711 5710 5709 5708 5706 5704 5702
5697 5697 5698 5698 5699 5699 5700 5700 5701 5701 5702 5702 5703 5703 5704 5704 5705 5705 5706 5707 5707 5708 5708 5708 5709 5709 5709 5709 5709 5709 5709 5709 5710 5710 5709 5709 5709 5708 5708 5707 5706 5704 5702 5700
5688 5688 5689 5689 5690 5691 5692 5692 5693 5694 5695 5695 5695 5696 5697 5697 5698 5699 5699 5700 5701 5702 5702 5703 5703 5704 5704 5704 5704 5705 5705 5706 5706 5706 5706 5706 5706 5705 5705 5704 5703 5702 5700 5698
5679 5679 5680 5680 5681 5682 5683 5684 5685 5686 5687 5687 5688 5688 5689 5690 5691 5692 5693 5694 5695 5696 5696 5697 5698 5699 5699 5700 5700 5700 5701 5701 5702 5702 5702 5702 5702 5702 5702 5701 5701 5699 5698 5696
5669 5670 5671 5672 5672 5674 5675 5676 5677 5678 5679 5679 5680 5681 5682 5683 5684 5685 5687 5688 5689 5690 5691 5692 5693 5694 5694 5695 5695 5696 5697 5697 5698 5698 5698 5698 5699 5699 5699 5698 5698 5697 5695 5694
5660 5661 5662 5663 5664 5665 5666 5668 5669 5670 5671 5672 5673 5674 5675 5676 5677 5679 5680 5681 5683 5684 5685 5686 5688 5688 5689 5690 5691 5692 5692 5693 5693 5694 5694 5695 5695 5695 5695 5695 5694 5694 5692 5691
5651 5652 5653 5654 5655 5657 5658 5659 5661 5662 5663 5665 5666 5667 5669 5670 5671 5673 5674 5676 5677 5678 5679 5681 5682 5683 5684 5685 5686 5687 5688 5689 5689 5690 5690 5691 5692 5692 5692 5692 5691 5690 5689 5688
5642 5643 5644 5645 5647 5648 5650 5652 5653 5655 5656 5658 5659 5660 5662 5663 5665 5666 5668 5669 5671 5672 5673 5675 5676 5677 5678 5680 5681 5682 5683 5684 5685 5686 5687 5687 5688 5688 5688 5688 5688 5687 5686 5684
5633 5634 5636 5637 5639 5640 5642 5644 5646 5648 5649 5651 5652 5654 5655 5657 5659 5660 5662 5663 5664 5666 5667 5669 5670 5671 5673 5674 5675 5677 5678 5680 5681 5682 5683 5684 5684 5685 5685 5685 5684 5683 5682 5681